Location: Navalmoral
(40.4603°N, 4.7686°W)
Time: 12:25:09
(UTC+00:00)

Okean-O - Pass Details

Date: 05 August 2024
Orbit: 632 x 633 km, 98.0° (Epoch: 18 September)

Event Time Altitude Azimuth Distance (km) Brightness Sun altitude
Exits shadow 21:31:25 16° 204° (SSW) 1,676 4.6 -20.1°
Maximum altitude 21:34:27 34° 263° (W) 1,050 4.0 -20.5°
Drops below altitude 10° 21:38:29 10° 328° (NNW) 2,027 6.3 -21.0°
Sets 21:40:52 0° 338° (NNW) 2,940 7.3 -21.3°
